• Join FlightAware (Why Join?)
  • Login
  • US Flag 
09:19PM EDT


 

Airport Tracker/Info


-or-


 

Live Flight TrackerFlight Track Log ✈ CTL22 ✈ 24-Apr-2013 ✈ KAZO - KBKL

Flight Track Log - Related Links

Times and Time Zones

All times are in EDT time to prevent confusion due to time zone crossing. See the CTL22 flight status page for this flight to view local times or setup timezone preferences in your user account.

Time Position Orientation Groundspeed Altitude Reporting Facility
EDT Latitude Longitude Course Direction KTS MPH feet Rate Location/Type
07:55PM 42.2042 -85.3869 113° Southeast 165 190 4,200  Level Chicago Center
07:56PM 42.1817 -85.3286 117° Southeast 172 198 4,900 780 Climbing Chicago Center
07:57PM 42.1544 -85.2542 116° Southeast 181 208 5,900 840 Climbing Chicago Center
07:58PM 42.1669 -85.1511 103° East  Level Estimated
07:58PM 42.1339 -85.1981 116° Southeast 172 198 6,700  Level Chicago Center
07:59PM 42.1555 -85.0845 103° East  Level Estimated
07:59PM 42.1117 -85.1406 118° Southeast 172 198 7,000  Level Chicago Center
08:01PM 42.0706 -85.0361 118° Southeast 193 222 7,000  Level Chicago Center
08:02PM 42.0461 -84.9669 115° Southeast 201 231 7,000  Level Chicago Center
08:03PM 42.0217 -84.9000 116° Southeast 200 230 7,100 60 Climbing Chicago Center
08:04PM 41.9917 -84.8192 117° Southeast 201 231 7,200  Climbing Chicago Center
08:05PM 41.9658 -84.7536 118° Southeast 199 229 7,100 -60 Descending Chicago Center
08:06PM 41.9400 -84.6858 117° Southeast 202 232 7,100  Level Chicago Center
08:07PM 41.9144 -84.6178 117° Southeast 203 234 7,100  Level Chicago Center
08:08PM 41.8914 -84.5522 115° Southeast 198 228 7,100  Level Chicago Center
08:09PM 41.8664 -84.4847 116° Southeast 200 230 7,100  Level Chicago Center
08:10PM 41.8383 -84.4203 120° Southeast 200 230 7,100  Level Chicago Center
08:11PM 41.8072 -84.3406 118° Southeast 200 230 7,100  Level Chicago Center
08:12PM 41.7819 -84.2728 117° Southeast 202 232 7,100  Level Chicago Center
08:13PM 41.7581 -84.2058 116° Southeast 202 232 7,200  Climbing Chicago Center
08:14PM 41.7358 -84.1361 113° Southeast 202 232 7,100  Descending Chicago Center
08:15PM 41.7142 -84.0675 113° Southeast 202 232 7,200 60 Climbing Chicago Center